Location: Mentone
(34.5413°N, 85.5351°W)
Time: 18:07:25
(UTC-06:00)

Uosat F - Visible Passes

Search period start: 21 January 2018 00:00
Search period end: 31 January 2018 00:00
Orbit: 750 x 761 km, 98.7° (Epoch: 20 January)

Date Brightness Start Highest point End Pass type
(mag) Time Alt. Az. Time Alt. Az. Time Alt. Az.
21 Jan 13.8 06:15:42 10° NE 06:19:46 24° E 06:23:48 10° SSE visible
21 Jan 12.1 17:25:43 10° ESE 17:29:38 24° ENE 17:33:35 10° NNE visible
21 Jan 12.8 19:03:43 10° SSW 19:08:11 33° W 19:12:40 10° NW visible
22 Jan 11.0 18:23:36 10° SSE 18:28:36 87° WSW 18:33:37 10° NNW visible
23 Jan 11.6 17:44:41 10° SE 17:49:14 36° ENE 17:53:48 10° N visible
23 Jan 13.5 19:24:20 10° SW 19:28:02 21° W 19:31:46 10° NW visible
24 Jan 14.2 05:57:02 10° ENE 05:59:51 15° E 06:02:38 10° SE visible
24 Jan 11.8 18:43:29 10° S 18:48:21 54° W 18:53:16 10° NNW visible
25 Jan 11.1 18:04:00 10° SSE 18:08:53 58° ENE 18:13:48 10° N visible
25 Jan 14.1 19:45:46 10° WSW 19:47:57 13° W 19:50:08 10° WNW visible
26 Jan 13.9 06:15:43 10° NE 06:19:45 24° E 06:23:45 10° SSE visible
26 Jan 12.1 17:25:45 10° ESE 17:29:38 23° ENE 17:33:32 10° NNE visible
26 Jan 12.7 19:03:40 10° SSW 19:08:10 33° W 19:12:41 10° NNW visible
27 Jan 11.0 18:23:35 10° SSE 18:28:35 88° W 18:33:37 10° NNW visible
28 Jan 11.6 17:44:41 10° SE 17:49:13 36° ENE 17:53:46 10° N visible
28 Jan 13.5 19:24:16 10° SW 19:28:01 21° W 19:31:47 10° NW visible
29 Jan 14.3 05:57:05 10° ENE 05:59:50 15° E 06:02:34 10° SE visible
29 Jan 11.8 18:43:27 10° S 18:48:20 55° W 18:53:16 10° NNW visible
30 Jan 11.1 18:03:59 10° SSE 18:08:52 57° ENE 18:13:47 10° N visible
30 Jan 14.1 19:45:39 10° WSW 19:47:56 13° W 19:50:12 10° WNW visible
